EN

Hourly Weather Bolshie Polyanki

Today, 23 October, Friday

Time Temperature Precipitation Wind Pressure Humidity
00:00 +1°C° 0 mm 1 mps 751 mmHg 74%
01:00 +1°C° 0 mm 1 mps 751 mmHg 76%
02:00 -2°C° 0 mm 2 mps 751 mmHg 78%
03:00 -2°C° 0 mm 2 mps 751 mmHg 80%
04:00 -2°C° 0 mm 3 mps 750 mmHg 79%
05:00 -2°C° 0 mm 3 mps 750 mmHg 79%
06:00 -3°C° 0 mm 4 mps 750 mmHg 79%
07:00 -2°C° 0 mm 4 mps 749 mmHg 76%
08:00 -2°C° 0 mm 5 mps 749 mmHg 73%
09:00 -2°C° 0 mm 6 mps 748 mmHg 71%
10:00 -2°C° 0.1 mm 6 mps 748 mmHg 78%
11:00 -2°C° 0.1 mm 7 mps 747 mmHg 86%
12:00 -2°C° 0.1 mm 7 mps 746 mmHg 93%
13:00 -1°C° 0.4 mm 7 mps 746 mmHg 94%
14:00 -1°C° 0.4 mm 7 mps 745 mmHg 94%
15:00 0°C° 0.4 mm 7 mps 745 mmHg 94%
16:00 +5°C° 0.5 mm 6 mps 740 mmHg 93%
17:00 +3°C° 0.5 mm 6 mps 741 mmHg 94%
18:00 +1°C° 0.5 mm 6 mps 743 mmHg 94%
19:00 +2°C° 0.5 mm 6 mps 742 mmHg 95%
20:00 +2°C° 0.5 mm 6 mps 742 mmHg 95%
21:00 +2°C° 0.5 mm 6 mps 741 mmHg 96%
22:00 +3°C° 0.2 mm 5 mps 741 mmHg 96%
23:00 +5°C° 0.2 mm 5 mps 740 mmHg 96%

Tomorrow, 24 October, Saturday

Time Temperature Precipitation Wind Pressure Humidity
00:00 +5°C° 0.2 mm 5 mps 740 mmHg 96%
01:00 +6°C° 0.9 mm 5 mps 740 mmHg 96%
02:00 +6°C° 0.9 mm 5 mps 739 mmHg 96%
03:00 +6°C° 0.9 mm 5 mps 739 mmHg 96%
04:00 +7°C° 0.3 mm 5 mps 739 mmHg 96%
05:00 +7°C° 0.3 mm 5 mps 738 mmHg 96%
06:00 +7°C° 0.3 mm 5 mps 738 mmHg 95%
07:00 +7°C° 0.2 mm 5 mps 738 mmHg 95%
08:00 +7°C° 0.2 mm 4 mps 738 mmHg 95%
09:00 +8°C° 0.2 mm 4 mps 738 mmHg 95%
10:00 +8°C° 0.1 mm 4 mps 738 mmHg 93%
11:00 +10°C° 0.1 mm 4 mps 738 mmHg 91%
12:00 +9°C° 0.1 mm 5 mps 739 mmHg 89%
13:00 +9°C° 0 mm 5 mps 739 mmHg 86%
14:00 +9°C° 0 mm 5 mps 740 mmHg 84%
15:00 +10°C° 0 mm 4 mps 740 mmHg 82%
16:00 +10°C° 0 mm 4 mps 741 mmHg 83%
17:00 +8°C° 0 mm 4 mps 741 mmHg 84%
18:00 +9°C° 0 mm 3 mps 742 mmHg 85%
19:00 +8°C° 0 mm 3 mps 742 mmHg 85%
20:00 +8°C° 0 mm 3 mps 742 mmHg 85%
21:00 +8°C° 0 mm 3 mps 743 mmHg 86%
22:00 +8°C° 0.1 mm 3 mps 743 mmHg 87%
23:00 +8°C° 0.1 mm 3 mps 743 mmHg 88%

Day after tomorrow, 25 October, Sunday

Time Temperature Precipitation Wind Pressure Humidity
00:00 +8°C° 0.1 mm 3 mps 743 mmHg 88%
01:00 +7°C° 0 mm 3 mps 743 mmHg 89%
02:00 +7°C° 0 mm 3 mps 743 mmHg 90%
03:00 +7°C° 0 mm 2 mps 743 mmHg 91%
04:00 +7°C° 0 mm 2 mps 743 mmHg 90%
05:00 +7°C° 0 mm 1 mps 743 mmHg 89%
06:00 +7°C° 0 mm 1 mps 743 mmHg 88%
07:00 +8°C° 0 mm 1 mps 744 mmHg 86%
08:00 +8°C° 0 mm 1 mps 744 mmHg 85%
09:00 +7°C° 0 mm 2 mps 744 mmHg 84%
10:00 +8°C° 0 mm 2 mps 744 mmHg 83%
11:00 +8°C° 0 mm 2 mps 743 mmHg 82%
12:00 +8°C° 0 mm 2 mps 743 mmHg 81%
13:00 +9°C° 0.5 mm 1 mps 743 mmHg 84%
14:00 +9°C° 0.5 mm 1 mps 743 mmHg 87%
15:00 +8°C° 0.5 mm 1 mps 743 mmHg 91%
16:00 +8°C° 0.1 mm 1 mps 743 mmHg 90%
17:00 +8°C° 0.1 mm 1 mps 743 mmHg 90%
18:00 +7°C° 0.1 mm 2 mps 743 mmHg 90%
19:00 +6°C° 0 mm 2 mps 743 mmHg 89%
20:00 +5°C° 0 mm 3 mps 743 mmHg 89%
21:00 +4°C° 0 mm 4 mps 743 mmHg 89%
22:00 +4°C° 0 mm 4 mps 743 mmHg 85%
23:00 +3°C° 0 mm 4 mps 744 mmHg 81%

, 26 October, Monday

Time Temperature Precipitation Wind Pressure Humidity
00:00 +3°C° 0 mm 3 mps 744 mmHg 78%
01:00 +3°C° 0 mm 4 mps 744 mmHg 80%
02:00 +3°C° 0 mm 4 mps 744 mmHg 83%
03:00 +2°C° 0 mm 5 mps 745 mmHg 86%
04:00 +2°C° 0.1 mm 6 mps 745 mmHg 83%
05:00 +2°C° 0.1 mm 6 mps 745 mmHg 81%
06:00 0°C° 0.1 mm 7 mps 746 mmHg 79%
07:00 0°C° 0 mm 7 mps 746 mmHg 75%
08:00 0°C° 0 mm 8 mps 746 mmHg 71%
09:00 0°C° 0 mm 8 mps 746 mmHg 67%
10:00 -1°C° 0.1 mm 8 mps 747 mmHg 72%
11:00 -1°C° 0.1 mm 8 mps 747 mmHg 77%
12:00 -1°C° 0.1 mm 8 mps 748 mmHg 81%
13:00 -1°C° 0.1 mm 8 mps 749 mmHg 77%
14:00 -1°C° 0.1 mm 8 mps 750 mmHg 73%
15:00 -1°C° 0.1 mm 8 mps 750 mmHg 70%
16:00 -1°C° 0 mm 8 mps 751 mmHg 71%
17:00 -1°C° 0 mm 8 mps 752 mmHg 73%
18:00 -2°C° 0 mm 7 mps 753 mmHg 74%
19:00 -2°C° 0 mm 7 mps 753 mmHg 75%
20:00 -2°C° 0 mm 6 mps 754 mmHg 75%
21:00 -2°C° 0 mm 6 mps 754 mmHg 76%
22:00 -2°C° 0 mm 5 mps 755 mmHg 77%
23:00 -2°C° 0 mm 5 mps 755 mmHg 79%

26 October, Monday

Time Temperature Precipitation Wind Pressure Humidity
00:00 +3°C° 0 mm 3 mps 744 mmHg 78%
01:00 +3°C° 0 mm 4 mps 744 mmHg 80%
02:00 +3°C° 0 mm 4 mps 744 mmHg 83%
03:00 +2°C° 0 mm 5 mps 745 mmHg 86%
04:00 +2°C° 0.1 mm 6 mps 745 mmHg 83%
05:00 +2°C° 0.1 mm 6 mps 745 mmHg 81%
06:00 0°C° 0.1 mm 7 mps 746 mmHg 79%
07:00 0°C° 0 mm 7 mps 746 mmHg 75%
08:00 0°C° 0 mm 8 mps 746 mmHg 71%
09:00 0°C° 0 mm 8 mps 746 mmHg 67%
10:00 -1°C° 0.1 mm 8 mps 747 mmHg 72%
11:00 -1°C° 0.1 mm 8 mps 747 mmHg 77%
12:00 -1°C° 0.1 mm 8 mps 748 mmHg 81%
13:00 -1°C° 0.1 mm 8 mps 749 mmHg 77%
14:00 -1°C° 0.1 mm 8 mps 750 mmHg 73%
15:00 -1°C° 0.1 mm 8 mps 750 mmHg 70%
16:00 -1°C° 0 mm 8 mps 751 mmHg 71%
17:00 -1°C° 0 mm 8 mps 752 mmHg 73%
18:00 -2°C° 0 mm 7 mps 753 mmHg 74%
19:00 -2°C° 0 mm 7 mps 753 mmHg 75%
20:00 -2°C° 0 mm 6 mps 754 mmHg 75%
21:00 -2°C° 0 mm 6 mps 754 mmHg 76%
22:00 -2°C° 0 mm 5 mps 755 mmHg 77%
23:00 -2°C° 0 mm 5 mps 755 mmHg 79%

27 October, Tuesday

Time Temperature Precipitation Wind Pressure Humidity
00:00 -2°C° 0 mm 4 mps 755 mmHg 81%
01:00 -3°C° 0 mm 4 mps 756 mmHg 82%
02:00 -3°C° 0 mm 4 mps 756 mmHg 83%
03:00 -3°C° 0 mm 4 mps 757 mmHg 83%
04:00 -3°C° 0 mm 4 mps 757 mmHg 84%
05:00 -3°C° 0 mm 4 mps 758 mmHg 84%
06:00 -3°C° 0 mm 4 mps 758 mmHg 84%
07:00 -3°C° 0 mm 4 mps 758 mmHg 81%
08:00 -1°C° 0 mm 3 mps 758 mmHg 79%
09:00 -1°C° 0 mm 3 mps 759 mmHg 76%
10:00 0°C° 0 mm 3 mps 759 mmHg 73%
11:00 +1°C° 0 mm 3 mps 759 mmHg 70%
12:00 +1°C° 0 mm 3 mps 759 mmHg 66%
13:00 +2°C° 0 mm 3 mps 759 mmHg 66%
14:00 +3°C° 0 mm 2 mps 759 mmHg 66%
15:00 +3°C° 0 mm 2 mps 760 mmHg 66%
16:00 +2°C° 0 mm 2 mps 760 mmHg 68%
17:00 +1°C° 0 mm 2 mps 760 mmHg 69%
18:00 +1°C° 0 mm 2 mps 760 mmHg 71%
19:00 +1°C° 0 mm 2 mps 760 mmHg 70%
20:00 +1°C° 0 mm 2 mps 760 mmHg 70%
21:00 +1°C° 0 mm 2 mps 760 mmHg 70%
22:00 -1°C° 0 mm 2 mps 760 mmHg 70%
23:00 -1°C° 0 mm 2 mps 760 mmHg 70%

28 October, Wednesday

Time Temperature Precipitation Wind Pressure Humidity
00:00 -1°C° 0 mm 2 mps 760 mmHg 70%
01:00 -1°C° 0 mm 3 mps 760 mmHg 71%
02:00 -1°C° 0 mm 3 mps 760 mmHg 72%
03:00 -1°C° 0 mm 3 mps 760 mmHg 73%
04:00 -1°C° 0 mm 3 mps 759 mmHg 73%
05:00 -1°C° 0 mm 3 mps 759 mmHg 73%
06:00 -1°C° 0 mm 3 mps 759 mmHg 73%
07:00 -1°C° 0 mm 4 mps 759 mmHg 70%
08:00 0°C° 0 mm 4 mps 759 mmHg 66%
09:00 0°C° 0 mm 4 mps 759 mmHg 63%
10:00 +1°C° 0 mm 5 mps 759 mmHg 61%
11:00 +2°C° 0 mm 5 mps 758 mmHg 59%
12:00 +2°C° 0 mm 5 mps 758 mmHg 57%
13:00 +2°C° 0 mm 5 mps 758 mmHg 58%
14:00 +2°C° 0 mm 5 mps 758 mmHg 60%
15:00 +2°C° 0 mm 5 mps 758 mmHg 61%
16:00 +1°C° 0 mm 5 mps 758 mmHg 64%
17:00 +1°C° 0 mm 5 mps 757 mmHg 66%
18:00 0°C° 0 mm 5 mps 757 mmHg 68%
19:00 0°C° 0 mm 5 mps 757 mmHg 70%
20:00 0°C° 0 mm 5 mps 757 mmHg 71%
21:00 0°C° 0 mm 5 mps 757 mmHg 72%
22:00 0°C° 0 mm 5 mps 757 mmHg 72%
23:00 0°C° 0 mm 5 mps 756 mmHg 73%
Show more